This is the latest recevied weather packets stored in our database for station/object KA4YMY. If no packets are shown the sender has not sent any weather packets the latest 10 day(s).
| Time | Temp. | Humidity | Pressure | Rain* | Wind** | Luminosity | Snow |
|---|---|---|---|---|---|---|---|
| 1777954516 | 17.78° C | 50% | 1014.9 hPa | 0 mm | - | - | - |
| 1777953916 | 18.33° C | 50% | 1015 hPa | 0 mm | - | - | - |
| 1777953316 | 18.33° C | 49% | 1015.1 hPa | 0 mm | - | - | - |
| 1777952716 | 18.33° C | 48% | 1015 hPa | 0 mm | - | - | - |
| 1777952116 | 18.89° C | 48% | 1015 hPa | 0 mm | - | - | - |
| 1777951516 | 18.89° C | 49% | 1015 hPa | 0 mm | - | - | - |
| 1777950916 | 18.89° C | 48% | 1015 hPa | 0 mm | - | - | - |
| 1777950316 | 18.89° C | 47% | 1015.1 hPa | 0 mm | - | - | - |
| 1777949716 | 18.89° C | 47% | 1015 hPa | 0 mm | - | - | - |
| 1777949116 | 18.89° C | 47% | 1015 hPa | 0 mm | - | - | - |
| 1777948516 | 18.33° C | 47% | 1014.9 hPa | 0 mm | - | - | - |
| 1777947916 | 18.89° C | 47% | 1014.8 hPa | 0 mm | - | - | - |
| 1777947316 | 18.89° C | 46% | 1014.8 hPa | 0 mm | - | - | - |
| 1777946716 | 19.44° C | 46% | 1014.6 hPa | 0 mm | - | - | - |
| 1777946116 | 19.44° C | 45% | 1014.5 hPa | 0 mm | - | - | - |
| 1777945518 | 19.44° C | 45% | 1014.5 hPa | 0 mm | - | - | - |
| 1777944917 | 20° C | 44% | 1014.4 hPa | 0 mm | - | - | - |
| 1777944318 | 20° C | 43% | 1014.3 hPa | 0 mm | - | - | - |
| 1777943718 | 20.56° C | 42% | 1014.3 hPa | 0 mm | - | - | - |
| 1777943117 | 21.11° C | 41% | 1014.1 hPa | 0 mm | - | - | - |
| 1777942518 | 21.11° C | 40% | 1013.9 hPa | 0 mm | - | - | - |
| 1777941917 | 21.67° C | 40% | 1013.8 hPa | 0 mm | - | - | - |
| 1777941317 | 21.67° C | 38% | 1013.5 hPa | 0 mm | - | - | - |
| 1777940717 | 22.22° C | 39% | 1013.5 hPa | 0 mm | - | - | - |
| 1777940117 | 22.22° C | 37% | 1013.5 hPa | 0 mm | - | - | - |
* Rain latest hour (hover to see other rain measurements)
** Current wind speed in m/s (hover to see current wind gust speed)